Showing default

GOES 2, 10061

Orbit data source: Space-Track

GOES 2, 10061 is a payload satellite owned by NOAA (US) in GEO that was launched on Thu, 16 Jun 1977 UTC via a DELTA 2914 launch vehicle from the Air Force Eastern Test Range (AFETR). Payloads include a variety of satellites, spacecraft, and rockets equipped with specific instruments for various scientific and technological missions. These include communications satellites like Starlink; space stations such as the ISS; scientific satellites like the Hubble; Earth observation satellites from companies like Planet Labs, Umbra, and HawkEye 360; GPS; miniature CubeSats for education and research; and military/defense satellites.

Loading next visibility...
GOES 2 details
Identifier
10061, 1977-048A
Orbit
GEO
Last TLE update3 days ago
Origin
Flag of USNOAA (US)
ManufacturerFord Ae
MissionNon-operational Civil Weather
Bus & MotorSMS, SVM-5
Mass624 kg wet, ~277 kg dry
Launch date (UTC)
1977-06-16 (48 years ago)
Launch vehicle
DELTA 2914
Launch site
Air Force Eastern Test Range (AFETR)
Object type
Payload
Rocket body
Debris
Shape & HBRCyl, 2.6 m
Radar Cross Section5.298 m², Large (>1 m²)

Expand to show TLE details & history

TLE from 3 days ago
0 GOES 2
1 10061U 77048A   25023.17135333 -.00000218  00000-0  00000-0 0  9994
2 10061   7.6327 297.6769 0012979  36.4421 161.2196  0.99398508 41203
Epoch: 2025-01-23T04:06Z
Definitive object data (Epoch: 2025-01-23T04:06:44.927Z)
Latitude-2.30143°
Longitude-49.19039°
Altitude36,085.299 km
Speed3.062 km/s
True Right ascension09h 00m 59s
True Declination-2° 17' 57"
Sunlit
Object was in daylight at TLE epoch
Visualization TLE readout
Latitude5.65542°
Longitude161.03104°
Altitude35,978.497 km
Speed3.07 km/s
Apparent Right ascension23h 23m 10s
Apparent Declination0° 08' 44"
Sunlit
Object is in daylight
Visualization observer readout
Local Sidereal Time19:51:24
Azimuth115.74° SE
Elevation27.635°
Doppler factor1
Orbital elements
Apogee altitude36,089.281 km
Perigee altitude35,979.187 km
Semi-major axis42,412.371 km
Eccentricity0.0012979
Inclination7.6327°
RAAN297.6769°
Arg. of periapsis36.4421°
True anomaly161.26741°
Mean anomaly161.2196°
Eccentric anomaly161.24351°
Mean motion0.24849 °/min
BSTARUnknown
Orbital period1448.77 mins
Loading historical data...
10061 neighbors
Authenticating...
Loading maneuver chart data...
Loading historical data...
Loading historical data...
Loading historical data...
Loading historical data...
Loading historical data...
Loading historical data...
Loading historical data...

GOES 2 Visibility forecast

Observer location: undefined°, undefined

Span
Click to sort rows by Start time (UTC) header in descending order
Start Az.
Max El. time (UTC)
Max El. Az.
Max El.
End time (UTC)
End Az.
1440 mins2025-01-25 18:30:37.083Z115.756° SE2025-01-26 18:30:37.083Z118.763° SE26.418°2025-01-26 18:30:37.083Z118.763° SE
|